sat.trackr.live / text

‹ back to catalog

JILIN-1 GAOFEN 3E

NORAD 46457 · 2020-065D

PAYLOAD ACTIVE UNKNOWN

§ Identity

Operator
Country
PRC
Launch date
2020-09-15
Launch site
SEAL
Launch vehicle
Mass (kg)
RCS (m²)

External: N2YO · Heavens-Above · Gunter

§ Orbital elements

Epoch: 2026-09-10T03:39:04.788864Z

Period
91.36 min
Inclination
97.2110°
Eccentricity
0.0009016
Mean motion
15.76142886 rev/d
Perigee alt
335.3 km
Apogee alt
347.4 km
Semi-major
6,719.5 km
B*
6.4461e-4
RAAN
308.3834°
Arg perigee
189.4602°
Mean anomaly
170.6495°
Rev number
33,308

§ Raw data

JILIN-1 GAOFEN 3E1 46457U 20065D   26253.15213876  .00101511  00000+0  64461-3 0  99922 46457  97.2110 308.3834 0009016 189.4602 170.6495 15.76142886333080

JSON: /api/v1/satellites/46457 · /tle

For live sub-satellite position, see the globe view (requires WebGL).

§ Visibility from observer

Set your observer location to see the next 7 days of passes ≥ 10°. The values pass through the URL so the page stays shareable.

No JS? Fill the form by hand. The geolocation button needs JavaScript.

§ Radio — SatNOGS DB

ModeDescriptionDownlinkUplink
BPSK Jillin Mysterious Pip 1.616 GHz

1 transmitter · refreshed weekly from db.satnogs.org